sat.trackr.live / text

‹ back to catalog

STARLINK-37949

NORAD 69671 · 2026-143Y

PAYLOAD ACTIVE UNKNOWN

§ Identity

Operator
Country
US
Launch date
2026-06-21
Launch site
AFWTR
Launch vehicle
Mass (kg)
RCS (m²)

Purposes: comms

External: N2YO · Heavens-Above · Gunter

§ Orbital elements

Epoch: 2026-09-18T22:11:34.598400Z

Period
93.91 min
Inclination
97.2852°
Eccentricity
0.0001040
Mean motion
15.33449957 rev/d
Perigee alt
464.8 km
Apogee alt
466.2 km
Semi-major
6,843.7 km
B*
4.5290e-4
RAAN
305.1759°
Arg perigee
74.0610°
Mean anomaly
286.0747°
Rev number
1,490

§ Raw data

STARLINK-379491 69671U 26143Y   26261.92470600  .00014577  00000+0  45290-3 0  99962 69671  97.2852 305.1759 0001040  74.0610 286.0747 15.33449957 14905

JSON: /api/v1/satellites/69671 · /tle

For live sub-satellite position, see the globe view (requires WebGL).

§ Visibility from observer

Set your observer location to see the next 7 days of passes ≥ 10°. The values pass through the URL so the page stays shareable.

No JS? Fill the form by hand. The geolocation button needs JavaScript.